Wind_Speed
20 19 22 29 29 22 19 14 27 51 58 47 35 17 15 13 11 7 8 11 22 22 22 26 27 27 27 31 40 44 48 47 45 44 42 39 37 36 32 29 28 27 31 26
23 20 22 29 30 29 25 27 30 48 54 37 33 41 42 39 33 36 37 31 26 18 18 15 18 25 30 32 35 44 45 44 44 42 38 38 39 38 34 30 30 29 26 24
28 19 18 21 35 31 32 29 30 39 53 30 34 39 35 31 28 30 32 23 27 22 20 13 17 22 22 29 33 36 40 41 42 40 39 40 42 38 33 29 28 27 25 24
24 13 14 37 24 23 26 29 31 37 30 25 44 46 42 31 30 34 31 33 37 36 34 35 29 29 31 33 35 36 37 42 42 41 40 44 44 37 32 28 29 25 25 24
14 16 23 34 24 21 24 33 27 32 31 24 26 38 55 47 35 26 28 31 35 36 34 31 27 24 32 33 34 35 38 41 43 42 42 45 42 37 38 32 25 26 25 24
22 11 11 33 20 23 28 44 32 41 39 32 34 38 33 28 35 36 39 38 34 35 30 37 41 39 29 28 26 26 33 36 40 41 44 44 41 37 25 26 28 28 23 24
38 31 24 46 29 19 27 28 31 40 48 36 37 40 27 26 23 28 37 32 34 38 36 36 38 45 44 42 39 29 35 37 41 43 44 44 43 33 28 31 29 24 24 24
30 26 22 48 39 30 37 33 35 30 34 39 38 29 27 31 32 31 32 30 33 32 31 28 38 41 43 46 36 35 36 39 43 45 50 45 39 34 31 31 27 26 25 22
22 29 41 41 26 23 25 26 32 26 28 34 38 27 23 26 35 36 35 27 33 37 43 39 35 43 44 42 43 39 38 42 48 51 50 49 40 32 34 30 28 26 22 20
31 43 39 39 32 34 33 28 33 28 29 34 36 38 32 30 34 36 34 31 33 38 42 47 45 34 38 43 47 41 42 47 51 53 52 48 37 35 32 31 26 24 21 19
38 41 41 38 32 33 30 30 39 37 37 40 44 47 40 34 37 37 32 31 34 40 41 50 51 41 36 44 42 41 43 50 55 56 55 51 40 34 33 30 25 23 20 20
40 34 29 34 29 29 30 31 32 32 31 30 31 43 47 38 44 45 39 30 34 41 43 52 52 42 39 42 40 46 47 50 61 62 62 51 40 36 36 30 29 24 22 19
39 35 36 37 35 37 37 37 36 34 36 38 36 41 41 46 54 52 46 37 37 39 45 49 53 44 46 45 41 47 50 57 65 65 63 52 43 42 35 26 26 25 20 21
35 36 39 38 40 37 37 37 35 37 39 40 40 39 42 45 45 54 59 48 36 38 45 46 49 49 53 49 46 47 56 61 59 65 64 50 44 39 26 24 23 19 20 20
31 31 35 37 37 38 38 37 37 41 42 42 39 40 44 45 45 48 52 52 38 40 48 52 42 56 57 50 51 52 58 67 72 72 60 49 40 34 24 26 24 24 22 20
34 34 35 37 38 39 41 39 39 41 42 40 42 43 47 46 45 47 50 42 37 45 51 55 49 55 54 51 52 49 58 69 74 68 56 43 40 27 27 25 23 22 20 19
41 41 39 41 40 39 40 38 40 41 38 38 41 39 46 41 48 36 36 33 38 44 49 50 48 48 48 48 48 55 64 73 68 54 42 40 27 25 26 24 23 21 20 20
35 39 39 38 36 34 33 34 37 37 33 37 36 43 43 48 37 31 32 39 44 48 47 48 48 43 44 51 53 57 69 70 58 44 41 31 28 28 26 24 22 21 21 21
35 38 37 33 30 29 29 33 33 28 32 29 31 37 45 38 34 33 37 45 45 44 49 48 45 43 48 50 53 59 67 60 46 42 31 30 29 28 25 23 21 21 21 21
31 22 24 22 23 27 28 26 22 21 24 29 35 32 26 29 26 28 36 40 41 41 39 41 44 46 43 47 53 58 51 44 39 32 31 31 29 26 23 22 21 20 20 20
24 15 15 14 15 17 18 17 17 20 29 25 20 23 20 18 21 21 24 26 30 31 32 36 39 41 49 53 51 49 46 37 33 31 31 27 24 24 23 21 20 20 21 21
18 12 7 6 9 11 12 15 15 20 20 16 19 16 14 17 20 21 23 26 31 30 35 36 44 50 52 49 47 42 36 32 30 29 26 25 25 23 21 20 19 21 22 21
19 13 9 2 3 2 7 8 7 9 12 14 15 16 16 17 19 27 34 37 41 46 50 48 47 45 40 35 33 31 30 28 26 25 24 23 21 20 19 19 20 21 20 19
27 25 23 15 6 4 9 17 18 21 24 23 21 25 31 37 40 41 46 47 45 44 43 42 39 36 33 29 27 25 24 24 24 23 21 19 18 17 18 19 20 19 19 19
14 18 21 24 28 27 23 22 24 27 26 29 30 33 32 32 35 40 41 40 39 36 33 31 29 27 25 24 24 24 24 22 21 19 17 17 17 18 19 19 19 18 18 17
7 6 7 14 21 23 23 21 21 21 21 22 25 29 28 31 34 34 34 32 31 29 27 26 26 25 25 24 23 21 19 18 17 16 16 15 16 17 18 19 18 17 15 15
6 7 5 11 19 19 15 16 21 23 22 23 26 25 23 22 23 24 24 25 25 26 25 25 24 23 21 20 19 17 15 13 12 12 12 13 15 17 17 17 16 14 14 14
Wind_Direction
272 271 294 298 298 297 272 278 232 233 241 241 237 229 157 157 173 214 267 285 254 245 251 241 236 234 222 234 228 229 228 229 231 234 235 234 229 225 224 228 234 237 242 248
269 276 281 288 282 280 274 269 263 231 250 243 250 245 252 262 271 269 279 270 269 246 240 239 232 228 237 237 229 228 231 231 230 229 232 226 224 219 225 227 234 238 242 252
266 266 273 278 266 262 266 266 256 252 249 264 250 244 249 256 262 265 268 252 258 247 230 226 255 246 241 234 224 222 224 227 226 229 226 223 218 221 229 228 234 238 246 252
267 267 247 260 270 259 249 255 252 258 266 279 258 246 240 244 256 262 260 252 251 248 250 267 267 256 245 232 229 229 229 225 228 224 221 221 217 224 227 228 234 240 243 250
242 244 266 263 245 240 236 246 247 263 264 262 282 271 254 242 244 248 254 254 259 257 249 242 246 244 230 228 226 229 231 232 228 224 222 220 218 226 229 230 232 236 241 255
232 243 251 265 262 250 247 261 253 259 263 270 270 272 276 269 259 255 259 258 260 249 249 241 239 245 242 224 220 233 238 233 229 224 222 218 221 238 222 227 229 232 244 259
231 239 257 258 257 243 220 246 270 276 274 273 269 268 263 264 248 261 258 259 254 252 250 250 245 239 243 242 244 247 239 226 225 220 218 216 230 223 218 225 225 234 252 256
233 237 248 259 264 240 253 262 272 272 273 267 264 256 258 258 264 262 271 247 248 227 234 255 245 235 236 239 245 244 236 227 220 217 218 223 228 212 218 220 225 240 248 251
221 230 254 273 265 268 259 263 265 267 262 264 262 260 248 248 253 254 263 264 246 252 248 248 250 235 232 238 242 237 227 223 216 214 216 219 227 207 216 216 231 239 243 243
243 250 256 262 262 266 266 257 262 270 262 270 268 263 261 254 247 250 257 261 255 249 236 243 238 236 237 235 237 233 225 219 215 214 215 223 208 210 214 225 228 236 239 240
248 260 259 261 260 263 263 261 270 268 261 263 262 257 258 258 245 242 243 251 254 250 236 233 234 235 243 236 233 218 220 217 215 216 220 220 206 211 215 219 224 229 231 236
245 262 267 270 268 266 264 261 263 268 265 253 260 262 261 258 249 243 239 243 248 250 238 233 228 227 235 236 233 222 218 223 217 218 222 222 200 210 215 213 220 222 224 228
271 274 269 269 269 264 264 261 265 264 259 261 260 253 257 256 254 243 237 237 242 252 240 237 235 222 226 229 238 227 226 223 218 222 225 217 198 211 217 213 224 218 215 225
272 277 275 271 269 270 267 265 263 261 260 258 257 256 253 252 259 255 246 242 237 251 245 235 236 225 218 226 235 233 224 222 225 225 223 211 201 211 203 211 219 219 220 226
277 273 270 272 268 263 264 265 261 259 259 257 252 258 262 252 252 252 252 245 236 237 239 229 231 226 218 226 231 236 224 218 218 222 221 206 202 208 197 209 209 216 222 233
285 281 276 270 268 266 262 260 261 260 259 259 255 256 256 259 250 242 233 230 233 225 229 227 228 225 222 226 235 229 218 217 217 222 212 194 205 191 200 205 212 220 227 233
293 288 283 277 271 267 266 262 260 262 260 256 261 261 259 260 239 227 225 235 227 226 221 222 222 218 220 224 223 213 211 210 212 219 191 197 186 188 198 204 213 219 228 237
295 285 280 277 272 267 263 256 256 259 258 263 262 264 255 261 227 225 236 238 220 211 204 205 208 216 223 220 219 214 208 204 208 192 193 178 181 192 200 207 214 224 233 239
305 290 277 270 262 255 249 248 253 255 259 260 264 261 265 231 222 232 239 227 219 207 196 198 205 220 222 217 208 208 200 203 182 187 169 177 186 196 202 211 220 228 234 240
310 285 275 260 250 245 249 252 255 258 262 266 275 270 239 224 233 233 213 205 210 208 204 207 210 213 211 205 203 201 186 178 180 163 174 184 191 199 209 215 223 230 234 240
316 286 262 265 257 248 248 250 244 256 263 281 253 238 233 238 238 203 194 198 199 207 203 204 196 194 183 181 177 170 178 162 159 172 184 189 196 206 212 218 226 232 236 240
323 323 279 227 226 241 235 239 254 263 263 267 247 233 230 227 205 191 181 180 169 170 175 170 163 162 163 167 171 168 153 155 169 183 190 197 203 207 215 223 230 234 235 236
2 354 5 31 184 250 294 272 272 284 271 258 249 239 211 200 184 171 156 147 145 145 146 152 159 161 153 143 144 152 162 171 182 191 195 198 202 208 217 225 231 233 231 233
41 49 53 52 76 123 122 103 92 94 99 106 115 132 135 138 138 137 132 138 145 151 151 145 136 136 143 152 161 168 177 182 184 185 190 197 206 215 222 224 222 223 229 234
44 56 67 74 83 93 112 124 121 128 125 127 129 132 134 138 146 140 149 148 136 128 130 137 143 149 157 163 168 170 173 176 181 188 197 207 214 217 218 219 222 226 230 235
53 62 67 91 99 107 110 112 115 116 119 122 120 118 120 127 124 123 121 122 128 138 147 154 157 159 161 163 166 171 177 184 191 199 208 215 219 219 218 219 220 225 229 225
50 78 88 101 112 112 104 114 119 117 122 128 119 109 114 124 129 133 141 146 149 152 154 155 155 158 161 166 172 178 183 191 201 209 214 214 213 212 214 215 218 219 217 212
Height
2935 2935 2937 2937 2932 2934 2937 2939 2943 2934 2930 2945 2958 2963 2959 2961 2964 2968 2972 2975 2977 2978 2981 2984 2987 2991 2995 2999 3004 3010 3015 3020 3025 3030 3036 3039 3043 3047 3051 3053 3056 3059 3062 3063
2933 2933 2935 2933 2930 2928 2931 2932 2934 2923 2916 2942 2955 2958 2958 2958 2960 2959 2967 2969 2970 2971 2975 2978 2981 2984 2988 2992 2996 3001 3006 3011 3016 3021 3026 3030 3034 3038 3042 3045 3049 3052 3054 3056
2924 2929 2930 2926 2920 2923 2923 2926 2926 2922 2914 2937 2937 2942 2946 2949 2950 2952 2957 2962 2964 2966 2969 2971 2975 2977 2980 2984 2987 2992 2996 3001 3006 3011 3016 3021 3026 3030 3034 3037 3042 3044 3047 3049
2917 2922 2918 2906 2915 2917 2918 2919 2921 2915 2918 2925 2924 2927 2929 2935 2939 2943 2948 2953 2956 2959 2961 2963 2966 2968 2971 2974 2979 2982 2987 2992 2997 3002 3007 3011 3016 3022 3025 3030 3033 3037 3039 3041
2914 2909 2904 2900 2906 2909 2913 2913 2917 2911 2914 2918 2916 2916 2916 2927 2931 2934 2938 2942 2945 2950 2952 2953 2957 2960 2962 2965 2970 2973 2978 2983 2988 2993 2999 3004 3010 3014 3016 3020 3027 3030 3032 3033
2909 2903 2892 2884 2893 2898 2901 2888 2905 2905 2905 2909 2911 2905 2911 2914 2919 2924 2928 2932 2935 2939 2942 2943 2946 2952 2956 2958 2961 2966 2971 2975 2980 2985 2992 2997 3002 3004 3008 3015 3019 3022 3024 3026
2892 2896 2886 2876 2887 2892 2889 2887 2889 2892 2892 2896 2894 2897 2904 2902 2908 2913 2916 2921 2923 2929 2929 2932 2936 2940 2945 2950 2953 2961 2963 2966 2971 2978 2984 2988 2992 2995 3002 3007 3011 3014 3017 3018
2885 2889 2883 2869 2872 2879 2875 2875 2876 2884 2884 2881 2882 2888 2890 2891 2897 2899 2903 2907 2912 2916 2918 2921 2923 2927 2933 2936 2948 2948 2953 2957 2963 2970 2973 2979 2983 2987 2994 2999 3003 3006 3008 3009
2871 2863 2860 2861 2865 2867 2867 2870 2866 2875 2874 2870 2869 2874 2878 2880 2883 2888 2891 2896 2900 2903 2908 2910 2912 2916 2922 2928 2931 2939 2943 2947 2954 2960 2966 2970 2975 2980 2987 2992 2995 2998 2998 3001
2864 2849 2852 2853 2858 2857 2858 2861 2860 2864 2862 2861 2860 2862 2863 2867 2870 2875 2879 2883 2888 2890 2893 2897 2902 2907 2913 2917 2919 2928 2932 2936 2944 2950 2956 2961 2966 2974 2980 2984 2988 2990 2991 2992
2849 2844 2844 2846 2850 2849 2851 2852 2849 2850 2853 2851 2851 2850 2854 2856 2858 2862 2867 2871 2875 2879 2881 2883 2890 2897 2902 2902 2910 2916 2922 2928 2934 2940 2946 2951 2957 2967 2973 2976 2981 2984 2985 2987
2834 2837 2839 2837 2840 2841 2840 2840 2839 2839 2839 2839 2840 2838 2839 2841 2845 2850 2853 2856 2861 2864 2869 2872 2875 2885 2889 2892 2902 2907 2911 2917 2922 2927 2933 2942 2948 2958 2962 2966 2972 2975 2977 2979
2824 2827 2827 2827 2828 2827 2827 2826 2827 2828 2826 2826 2826 2826 2826 2828 2832 2833 2838 2842 2847 2850 2857 2861 2862 2871 2877 2882 2891 2897 2902 2905 2910 2918 2925 2932 2938 2946 2953 2959 2965 2968 2969 2973
2817 2815 2812 2812 2810 2812 2810 2811 2813 2811 2809 2810 2810 2812 2812 2812 2814 2816 2822 2827 2832 2838 2842 2848 2852 2857 2861 2871 2879 2886 2890 2897 2903 2907 2914 2921 2930 2938 2946 2953 2958 2961 2964 2967
2803 2802 2800 2798 2797 2794 2795 2795 2796 2795 2796 2797 2798 2798 2798 2798 2798 2800 2806 2812 2815 2821 2826 2835 2841 2844 2848 2859 2865 2871 2876 2884 2891 2896 2904 2909 2922 2932 2940 2946 2950 2955 2956 2958
2790 2787 2785 2784 2782 2780 2780 2780 2779 2778 2780 2783 2783 2784 2783 2784 2784 2785 2790 2797 2798 2802 2811 2819 2825 2832 2839 2846 2854 2859 2867 2873 2880 2889 2894 2903 2915 2923 2930 2937 2942 2947 2948 2950
2775 2771 2771 2767 2767 2766 2765 2766 2765 2763 2766 2767 2768 2768 2766 2766 2767 2770 2776 2781 2787 2791 2799 2806 2813 2821 2827 2835 2842 2847 2853 2862 2873 2884 2892 2901 2909 2916 2925 2930 2936 2939 2941 2944
2765 2758 2754 2751 2750 2752 2753 2752 2751 2751 2752 2753 2753 2752 2751 2751 2752 2759 2764 2768 2773 2780 2785 2790 2801 2809 2817 2823 2828 2836 2844 2853 2866 2877 2887 2894 2904 2911 2919 2924 2928 2932 2934 2937
2752 2743 2739 2737 2737 2738 2740 2741 2741 2741 2741 2743 2741 2740 2740 2738 2740 2746 2750 2755 2763 2769 2771 2780 2790 2799 2806 2812 2821 2828 2840 2851 2861 2874 2883 2892 2899 2908 2913 2917 2922 2926 2929 2931
2741 2734 2731 2729 2728 2729 2732 2734 2734 2734 2734 2734 2731 2730 2728 2729 2731 2736 2740 2746 2753 2760 2766 2774 2782 2791 2799 2808 2814 2828 2840 2853 2862 2871 2881 2889 2896 2902 2907 2911 2916 2920 2922 2924
2733 2728 2725 2724 2724 2725 2726 2727 2727 2726 2726 2723 2720 2720 2721 2722 2725 2728 2734 2738 2744 2752 2758 2768 2778 2788 2796 2809 2820 2831 2840 2849 2860 2869 2878 2884 2890 2897 2902 2906 2909 2913 2916 2918
2729 2723 2719 2718 2719 2720 2720 2721 2721 2722 2721 2719 2718 2718 2720 2723 2726 2728 2733 2739 2742 2750 2760 2769 2781 2794 2805 2815 2822 2829 2839 2847 2857 2867 2874 2880 2887 2892 2896 2899 2903 2907 2909 2911
2727 2722 2718 2716 2715 2716 2716 2717 2717 2717 2716 2717 2718 2721 2725 2728 2731 2735 2737 2743 2749 2756 2768 2779 2788 2798 2807 2816 2824 2833 2841 2848 2856 2864 2871 2877 2882 2886 2890 2894 2898 2901 2901 2904
2736 2729 2723 2718 2716 2717 2719 2721 2722 2723 2723 2725 2726 2729 2736 2740 2743 2748 2751 2755 2762 2771 2780 2787 2795 2805 2814 2822 2828 2835 2842 2849 2856 2863 2869 2874 2877 2881 2885 2889 2892 2893 2895 2898
2746 2742 2738 2735 2731 2730 2732 2734 2735 2736 2738 2740 2742 2746 2749 2750 2753 2755 2757 2762 2772 2780 2789 2797 2804 2809 2816 2823 2830 2837 2844 2850 2855 2860 2865 2869 2873 2876 2879 2882 2885 2887 2891 2893
2753 2750 2748 2745 2744 2743 2743 2745 2745 2746 2747 2748 2749 2751 2753 2756 2758 2763 2769 2776 2783 2791 2797 2803 2808 2814 2820 2826 2832 2838 2844 2849 2853 2857 2861 2864 2868 2871 2874 2878 2879 2883 2885 2886
2758 2756 2755 2754 2752 2752 2751 2751 2751 2751 2753 2755 2757 2759 2762 2766 2771 2776 2781 2786 2791 2797 2802 2807 2812 2817 2823 2828 2833 2839 2842 2846 2850 2854 2857 2860 2864 2867 2871 2873 2875 2876 2880 2882